{"data":{"norad_id":62615,"intl_designator":"2025-009G","name":"TRANSPORTER-12 OBJECT G","alt_names":[],"object_type":"PAYLOAD","status":"ACTIVE","operator":null,"country":"TBD","launch_date":"2025-01-14","launch_site_code":"AFWTR","launch_vehicle":null,"mission":null,"orbit_class":"UNKNOWN","rcs_meters":null,"size_class":null,"mass_kg":null,"dimensions":null,"purposes":[],"wikipedia_slug":null,"has_3d_model":false,"image_url":null,"decayed_at":null,"tle_current":{"epoch":"2026-05-25T04:35:13.811712Z","epoch_age_seconds":52534,"freshness":"FRESH","line1":"1 62615U 25009G   26145.19113208  .00006403  00000+0  25581-3 0  9995","line2":"2 62615  97.3943 225.4146 0007401  59.8420 300.3550 15.25452362 75295","mean_motion":15.25452362,"eccentricity":0.0007401,"inclination_deg":97.3943,"raan_deg":225.4146,"arg_perigee_deg":59.842,"mean_anomaly_deg":300.355,"bstar":0.00025581,"rev_number":7529,"period_min":94.398228084424,"perigee_km":484.34472896216,"apogee_km":494.51009780685,"semimajor_km":6867.5644133845,"source":"CELESTRAK","updated_at":"2026-05-25T13:38:03.127484Z"}}}